CW5752 Weather Reports


Display with metric or nautical units.
time (UTC)temp
F
wind
direction
speed
MPH
gust
MPH
rain 1hr
in
rain 24hr
in
rain mn
in
humidity
%
barometer
mb
20260505073541 67 189 3.0 11.0 0.00 0.00 0.00 58 1006.2
20260505072521 67 182 3.0 11.0 0.00 0.00 0.00 58 1006.1
20260505071521 68 181 3.0 11.0 0.00 0.00 0.00 57 1006.1
20260505070541 68 185 4.0 15.0 0.00 0.00 0.00 56 1006.1
20260505065521 68 186 4.0 15.0 0.00 0.00 0.00 55 1006.3
20260505064536 68 186 5.0 14.0 0.00 0.00 0.00 55 1006.4
20260505063522 69 187 5.0 10.0 0.00 0.00 0.00 55 1006.3
20260505062521 69 186 4.0 12.0 0.00 0.00 0.00 55 1006.2
20260505061521 69 188 4.0 12.0 0.00 0.00 0.00 54 1006.2
20260505060541 69 188 5.0 16.0 0.00 0.00 0.00 54 1006.2
20260505055521 70 187 6.0 17.0 0.00 0.00 0.00 53 1006.1
20260505054521 70 189 6.0 16.0 0.00 0.00 0.00 53 1006.0
20260505053516 70 179 5.0 13.0 0.00 0.00 0.00 53 1006.0
20260505052521 70 187 5.0 12.0 0.00 0.00 0.00 53 1005.8
20260505051521 70 180 4.0 16.0 0.00 0.00 0.00 53 1005.6
20260505050521 70 183 6.0 9.0 0.00 0.00 0.00 53 1006.0
20260505041516 71 184 5.0 17.0 0.00 0.00 0.00 52 1006.0
20260505040522 71 185 4.0 12.0 0.00 0.00 0.00 52 1006.0
20260505035522 71 178 5.0 10.0 0.00 0.00 0.00 52 1005.9
20260505034521 71 183 5.0 14.0 0.00 0.00 0.00 52 1006.0
20260505033521 71 177 3.0 8.0 0.00 0.00 0.00 52 1005.9
20260505032522 71 181 4.0 17.0 0.00 0.00 0.00 51 1005.9
20260505031522 71 158 3.0 10.0 0.00 0.00 0.00 52 1005.8
20260505030557 71 173 3.0 16.0 0.00 0.00 0.00 51 1005.6
20260505025521 71 180 3.0 11.0 0.00 0.00 0.00 51 1005.6
20260505024521 71 179 3.0 10.0 0.00 0.00 0.00 51 1005.4
20260505023521 72 165 3.0 11.0 0.00 0.00 0.00 50 1005.5
20260505022522 72 180 2.0 11.0 0.00 0.00 0.00 50 1005.6
20260505021542 72 182 3.0 11.0 0.00 0.00 0.00 49 1005.4
20260505020517 72 176 3.0 9.0 0.00 0.00 0.00 49 1005.3
20260505015516 72 173 3.0 12.0 0.00 0.00 0.00 49 1005.0
20260505014542 73 170 4.0 12.0 0.00 0.00 0.00 48 1005.0
20260505013541 73 176 3.0 9.0 0.00 0.00 0.00 48 1004.9
20260505012522 73 180 5.0 16.0 0.00 0.00 0.00 47 1004.9
20260505011521 73 182 2.0 9.0 0.00 0.00 0.00 48 1004.9
20260505010522 74 176 3.0 10.0 0.00 0.00 0.00 46 1004.8
20260505005536 74 175 5.0 12.0 0.00 0.00 0.00 45 1004.8
20260505004522 74 182 4.0 20.0 0.00 0.00 0.00 45 1004.5
20260505003522 75 182 4.0 13.0 0.00 0.00 0.00 45 1004.3
20260505002521 75 184 5.0 17.0 0.00 0.00 0.00 44 1004.3
20260505001521 75 181 4.0 17.0 0.00 0.00 0.00 44 1004.2
20260505000541 76 182 4.0 18.0 0.00 0.00 0.00 44 1004.3
20260504235516 76 186 4.0 11.0 0.00 0.00 0.00 43 1004.3
20260504234516 77 167 4.0 13.0 0.00 0.00 0.00 43 1004.6
20260504233541 77 185 4.0 11.0 0.00 0.00 0.00 43 1004.7
20260504232522 76 178 3.0 11.0 0.00 0.00 0.00 44 1004.8
20260504231521 77 185 3.0 13.0 0.00 0.00 0.00 43 1005.0
20260504230522 78 180 4.0 13.0 0.00 0.00 0.00 41 1004.9
20260504225546 78 162 4.0 13.0 0.00 0.00 0.00 42 1004.8
20260504224516 79 174 4.0 11.0 0.00 0.00 0.00 41 1004.9
20260504223521 77 171 2.0 15.0 0.00 0.00 0.00 42 1005.1
20260504222522 78 185 3.0 15.0 0.00 0.00 0.00 40 1005.0
20260504221522 78 163 4.0 14.0 0.00 0.00 0.00 39 1005.0
20260504220522 78 157 3.0 17.0 0.00 0.00 0.00 40 1005.4
20260504215521 79 167 3.0 10.0 0.00 0.00 0.00 38 1005.5
20260504214521 79 172 3.0 12.0 0.00 0.00 0.00 39 1005.8
20260504213516 78 184 3.0 13.0 0.00 0.00 0.00 37 1005.8
20260504212542 78 188 5.0 15.0 0.00 0.00 0.00 37 1006.2
20260504211521 78 185 4.0 13.0 0.00 0.00 0.00 37 1006.5
20260504210521 80 217 6.0 11.0 0.00 0.00 0.00 36 1006.7
20260504205521 79 183 5.0 16.0 0.00 0.00 0.00 35 1006.8
20260504204521 81 185 6.0 15.0 0.00 0.00 0.00 34 1006.8
20260504203536 82 203 6.0 17.0 0.00 0.00 0.00 35 1006.6
20260504202517 81 192 8.0 20.0 0.00 0.00 0.00 35 1006.4
20260504201521 81 207 8.0 21.0 0.00 0.00 0.00 35 1006.4
20260504200522 80 183 8.0 22.0 0.00 0.00 0.00 35 1006.5
20260504195521 80 180 7.0 19.0 0.00 0.00 0.00 36 1006.4
20260504194520 80 172 5.0 19.0 0.00 0.00 0.00 37 1006.5
20260504193522 80 179 6.0 19.0 0.00 0.00 0.00 35 1006.6
20260504192516 81 214 7.0 17.0 0.00 0.00 0.00 36 1006.6
20260504191602 81 184 4.0 12.0 0.00 0.00 0.00 37 1006.6
20260504190521 82 223 9.0 19.0 0.00 0.00 0.00 35 1006.6
20260504184541 81 191 6.0 19.0 0.00 0.00 0.00 35 1006.7
20260504183521 81 205 8.0 19.0 0.00 0.00 0.00 35 1006.8
20260504182516 81 193 8.0 17.0 0.00 0.00 0.00 35 1007.0
20260504181516 80 194 7.0 20.0 0.00 0.00 0.00 36 1007.2
20260504180521 81 211 6.0 17.0 0.00 0.00 0.00 36 1007.1
20260504175521 80 188 7.0 17.0 0.00 0.00 0.00 36 1007.3
20260504174542 80 185 7.0 22.0 0.00 0.00 0.00 41 1007.4
20260504173602 79 174 6.0 14.0 0.00 0.00 0.00 40 1007.5
20260504172521 78 191 7.0 26.0 0.00 0.00 0.00 40 1007.8
20260504171516 77 194 7.0 16.0 0.00 0.00 0.00 41 1008.0
20260504170522 77 184 6.0 22.0 0.00 0.00 0.00 45 1008.2
20260504150516 71 197 4.0 12.0 0.00 0.00 0.00 57 1008.7
20260504140521 67 171 2.0 6.0 0.00 0.00 0.00 64 1009.9
20260504130521 62 170 0.0 3.0 0.00 0.00 0.00 72 1010.2
20260504110521 58 0.0 0.0 0.00 0.00 0.00 78 1009.7
20260504100521 58 0.0 0.0 0.00 0.00 0.00 76 1009.9
20260504081541 63 196 3.0 8.0 0.00 0.00 0.00 62 1009.4
20260504080521 63 187 4.0 11.0 0.00 0.00 0.00 62 1009.5